EW3114 Weather Reports


time (UTC)temp
C
wind
direction
speed
KPH
gust
KPH
rain 1hr
cm
rain 24hr
cm
rain mn
cm
humidity
%
barometer
mb
20260503221603 -17 249 0.0 0.0 0.00 0.00 0.00 1009.3
20260503213003 -17 79 0.0 0.0 0.00 0.00 0.00 1009.7
20260503211558 -17 243 0.0 0.0 0.00 0.00 0.00 1010.1
20260503210054 -17 21 0.0 0.0 0.00 0.00 0.00 1010.3
20260503204550 -17 207 0.0 0.0 0.00 0.00 0.00 1010.6
20260503203052 -17 78 0.0 0.0 0.00 0.00 0.00 1010.9
20260503201544 -17 190 0.0 0.0 0.00 0.00 0.00 1010.8
20260503200036 -17 132 0.0 0.0 0.00 0.00 0.00 1011.2
20260503194533 -17 17 0.0 0.0 0.00 0.00 0.00 1011.3
20260503193013 -17 8 0.0 0.0 0.00 0.00 0.00 1011.6
20260503191525 -17 89 0.0 0.0 0.00 0.00 0.00 1011.9
20260503190052 -17 125 0.0 0.0 0.00 0.00 0.00 1012.2
20260503184558 -17 272 0.0 0.0 0.00 0.00 0.00 100 1012.5
20260503183044 -17 138 0.0 0.0 0.00 0.00 0.00 1012.9
20260503181538 -17 143 0.0 0.0 0.00 0.00 0.00 1013.4
20260503180044 -17 257 0.0 0.0 0.00 0.00 0.00 1014.4
20260503174532 -17 196 0.0 0.0 0.00 0.00 0.00 1014.9
20260503173025 -17 326 0.0 0.0 0.00 0.00 0.00 1015.3
20260503171525 -17 112 0.0 0.0 0.00 0.00 0.00 1015.5
20260503081524 -17 143 0.0 0.0 0.00 0.00 0.00 1018.4
20260503071519 -17 185 0.0 0.0 0.00 0.00 0.00 1018.6
20260503054503 -17 219 0.0 0.0 0.00 0.00 0.00 1019.3
20260503053059 -17 234 0.0 0.0 0.00 0.00 0.00 1019.4
20260503051555 -17 243 0.0 0.0 0.00 0.00 0.00 1019.6
20260503050052 -17 101 0.0 0.0 0.00 0.00 0.00 1019.7
20260503044545 -17 218 0.0 0.0 0.00 0.00 0.00 1019.7
20260503043048 -17 252 0.0 0.0 0.00 0.00 0.00 1019.7
20260503041538 -17 89 0.0 0.0 0.00 0.00 0.00 1019.7
20260503040034 -17 98 0.0 0.0 0.00 0.00 0.00 1019.8
20260503034515 -17 235 0.0 0.0 0.00 0.00 0.00 1019.8
20260503033019 -17 195 0.0 0.0 0.00 0.00 0.00 1019.8
20260503031507 -17 153 0.0 0.0 0.00 0.00 0.00 1019.9
20260503030002 -17 124 0.0 0.0 0.00 0.00 0.00 1020.0
20260503024557 -17 323 0.0 0.0 0.00 0.00 0.00 1020.1
20260503023059 -17 184 0.0 0.0 0.00 0.00 0.00 1020.0
20260503021555 -17 184 0.0 0.0 0.00 0.00 0.00 1020.1
20260503020049 -17 174 0.0 0.0 0.00 0.00 0.00 1019.9
20260503014521 -17 115 0.0 0.0 0.00 0.00 0.00 1019.9
20260503013017 -17 257 0.0 0.0 0.00 0.00 0.00 1019.8
20260503011605 -17 257 0.0 0.0 0.00 0.00 0.00 1019.8
20260503010103 -17 146 0.0 0.0 0.00 0.00 0.00 1019.8
20260503004600 -17 229 0.0 0.0 0.00 0.00 0.00 1019.8
20260503003102 -17 134 0.0 0.0 0.00 0.00 0.00 1019.8
20260503001559 -17 139 0.0 0.0 0.00 0.00 0.00 1019.9
20260503000039 -17 152 0.0 0.0 0.00 0.00 0.00 1020.0
20260502234533 -17 91 0.0 0.0 0.00 0.00 0.00 1020.0
20260502233030 -17 219 0.0 0.0 0.00 0.00 0.00 1020.3
20260502231513 -17 114 0.0 0.0 0.00 0.00 0.00 1020.4
20260502230003 -17 132 0.0 0.0 0.00 0.00 0.00 1020.4